Danville, KY

12:13 PM EDT on July 27, 2017 (GMT -0400)
Powell

Weather History for KDVK - January, 2014

Change the Weather History Date:

Monday, January 13, 2014

  Actual Average (KLEX) Record (KLEX)
Temperature  
Mean Temperature 44 °F -  
Max Temperature 48 °F 41 °F 69 °F (1995)
Min Temperature 39 °F 22 °F -12 °F (1895)
Degree Days  
Heating Degree Days 22    
Moisture  
Dew Point 39 °F    
Average Humidity 80    
Maximum Humidity 100    
Minimum Humidity 54    
Precipitation  
Precipitation 0.00 in - - ()
Sea Level Pressure  
Sea Level Pressure 29.87 in    
Wind  
Wind Speed 12 mph (SSW)    
Max Wind Speed 22 mph    
Max Gust Speed 30 mph    
Visibility 8 miles    
Events Rain    
Averages and records for this station are not official NWS values.
T = Trace of Precipitation, MM = Missing Value Source: NWS Daily Summary

Daily Weather History Graph

Daily Weather History Graph

Search for Another Location

Airport or City:

Trip Planner

Search our weather history database for the weather conditions in past years. The results will help you decide how hot, cold, wet, or windy it might be!

Date:

Astronomy

Jan. 13, 2014 Rise Set
Actual Time 7:53 AM EST 5:42 PM EST
Civil Twilight 7:24 AM EST 6:11 PM EST
Nautical Twilight 6:52 AM EST 6:43 PM EST
Astronomical Twilight 6:20 AM EST 7:15 PM EST
Moon 3:56 PM EST (1/13) 5:41 AM EST (1/13)
Length of Visible Light 10h 46m
Length of Day
9h 49m
Waxing Gibbous, 95% of the Moon is Illuminated
Jan 13
Waxing Gibbous
Jan 15
Full
Jan 24
Last Quarter
Jan 30
New
Feb 6
First Quarter

Hourly Weather History & Observations

Time (EST) Temp. Windchill Dew Point Humidity Pressure Visibility Wind Dir Wind Speed Gust Speed Precip Events Conditions
12:15 AM 39.2 °F 35.9 °F 32.0 °F 75% 29.99 in 10.0 mi SSW 4.6 mph - N/A   Clear
12:35 AM 41.0 °F 35.2 °F 32.0 °F 70% 29.98 in 10.0 mi SSW 9.2 mph - N/A   Clear
12:55 AM 42.8 °F 37.5 °F 32.0 °F 66% 29.97 in 10.0 mi South 9.2 mph 16.1 mph N/A   Clear
1:15 AM 42.8 °F 37.0 °F 32.0 °F 66% 29.96 in 10.0 mi South 10.4 mph - N/A   Clear
1:35 AM 41.0 °F 35.8 °F 32.0 °F 70% 29.96 in 10.0 mi SSW 8.1 mph - N/A   Clear
1:55 AM 41.0 °F 37.1 °F 32.0 °F 70% 29.96 in 10.0 mi South 5.8 mph - N/A   Clear
2:15 AM 42.8 °F 37.5 °F 32.0 °F 66% 29.96 in 10.0 mi SSW 9.2 mph - N/A   Clear
2:35 AM 44.6 °F 37.8 °F 32.0 °F 61% 29.95 in 10.0 mi SSW 15.0 mph 20.7 mph N/A   Clear
2:55 AM 44.6 °F 37.2 °F 32.0 °F 61% 29.94 in 10.0 mi SSW 17.3 mph 23.0 mph N/A   Clear
3:15 AM 46.4 °F 39.8 °F 32.0 °F 57% 29.95 in 10.0 mi SSW 16.1 mph 24.2 mph N/A   Clear
3:35 AM 44.6 °F 37.4 °F 32.0 °F 61% 29.95 in 10.0 mi SSW 16.1 mph 21.9 mph N/A   Clear
3:55 AM 44.6 °F 38.1 °F 32.0 °F 61% 29.94 in 10.0 mi SSW 13.8 mph - N/A   Clear
4:15 AM 44.6 °F 38.1 °F 32.0 °F 61% 29.95 in 10.0 mi SSW 13.8 mph - N/A   Clear
4:35 AM 46.4 °F 40.1 °F 32.0 °F 57% 29.95 in 10.0 mi SSW 15.0 mph - N/A   Clear
4:55 AM 46.4 °F 39.8 °F 32.0 °F 57% 29.95 in 10.0 mi SSW 16.1 mph 20.7 mph N/A   Clear
5:15 AM 46.4 °F 39.5 °F 32.0 °F 57% 29.94 in 10.0 mi SSW 17.3 mph 21.9 mph N/A   Clear
5:35 AM 46.4 °F 39.8 °F 32.0 °F 57% 29.94 in 10.0 mi SSW 16.1 mph 21.9 mph N/A   Clear
5:55 AM 46.4 °F 40.7 °F 32.0 °F 57% 29.94 in 10.0 mi SSW 12.7 mph 18.4 mph N/A   Clear
6:15 AM 46.4 °F 40.7 °F 32.0 °F 57% 29.90 in 10.0 mi SSW 12.7 mph - N/A   Scattered Clouds
6:35 AM 48.2 °F - 32.0 °F 54% 29.90 in 10.0 mi SSW 13.8 mph - N/A   Clear
6:55 AM 48.2 °F - 32.0 °F 54% 29.89 in 10.0 mi SSW 10.4 mph - N/A   Clear
7:15 AM 48.2 °F - 32.0 °F 54% 29.88 in 10.0 mi South 13.8 mph - N/A   Clear
7:35 AM 46.4 °F 41.1 °F 32.0 °F 57% 29.88 in 10.0 mi South 11.5 mph 20.7 mph N/A   Clear
7:55 AM 46.4 °F 41.9 °F 32.0 °F 57% 29.89 in 10.0 mi SSW 9.2 mph 17.3 mph N/A   Clear
8:15 AM 46.4 °F 41.5 °F 32.0 °F 57% 29.92 in 10.0 mi SSW 10.4 mph 17.3 mph N/A   Mostly Cloudy
8:35 AM 46.4 °F 41.5 °F 33.8 °F 62% 29.92 in 10.0 mi SSW 10.4 mph - N/A   Mostly Cloudy
8:55 AM 48.2 °F - 32.0 °F 54% 29.91 in 10.0 mi SSW 13.8 mph 21.9 mph N/A   Overcast
9:15 AM 48.2 °F - 33.8 °F 58% 29.91 in 10.0 mi SSW 15.0 mph 19.6 mph N/A Rain Light Rain
9:35 AM 48.2 °F - 35.6 °F 62% 29.90 in 10.0 mi SSW 17.3 mph 27.6 mph N/A Rain Rain
9:55 AM 48.2 °F - 37.4 °F 66% 29.91 in 10.0 mi SW 17.3 mph 28.8 mph N/A   Drizzle
10:15 AM 48.2 °F - 39.2 °F 71% 29.91 in 10.0 mi SSW 19.6 mph 29.9 mph N/A Rain Rain
10:35 AM 46.4 °F 39.0 °F 39.2 °F 76% 29.90 in 10.0 mi SSW 19.6 mph 28.8 mph N/A Rain Light Rain
10:55 AM 46.4 °F 39.2 °F 39.2 °F 76% 29.90 in 10.0 mi SSW 18.4 mph 21.9 mph N/A Rain Light Rain
11:15 AM 46.4 °F 39.5 °F 39.2 °F 76% 29.90 in 10.0 mi SW 17.3 mph 27.6 mph N/A   Drizzle
11:35 AM 46.4 °F 38.5 °F 41.0 °F 81% 29.89 in 10.0 mi SSW 21.9 mph 26.5 mph N/A   Drizzle
11:55 AM 46.4 °F 39.5 °F 42.8 °F 87% 29.88 in 7.0 mi SSW 17.3 mph 24.2 mph N/A Rain Light Rain
12:15 PM 46.4 °F 39.2 °F 42.8 °F 87% 29.88 in 10.0 mi SSW 18.4 mph 26.5 mph N/A Rain Light Rain
12:35 PM 44.6 °F 36.6 °F 42.8 °F 93% 29.87 in 7.0 mi SSW 19.6 mph 27.6 mph N/A Rain Light Rain
12:55 PM 44.6 °F 36.9 °F 42.8 °F 93% 29.86 in 7.0 mi SSW 18.4 mph 26.5 mph N/A Rain Light Rain
1:15 PM 44.6 °F 38.1 °F 44.6 °F 100% 29.85 in 10.0 mi SSW 13.8 mph 21.9 mph N/A Rain Light Rain
1:35 PM 44.6 °F 38.1 °F 44.6 °F 100% 29.84 in 5.0 mi SSW 13.8 mph 19.6 mph N/A Rain Rain
1:55 PM 46.4 °F 40.7 °F 44.6 °F 93% 29.82 in 7.0 mi SSW 12.7 mph 20.7 mph N/A Rain Rain
2:15 PM 46.4 °F 40.7 °F 44.6 °F 93% 29.81 in 7.0 mi SSW 12.7 mph 21.9 mph N/A Rain Rain
2:35 PM 46.4 °F 40.4 °F 44.6 °F 93% 29.80 in 7.0 mi SSW 13.8 mph 25.3 mph N/A Rain Rain
2:55 PM 46.4 °F 40.1 °F 46.4 °F 100% 29.79 in 7.0 mi SSW 15.0 mph 20.7 mph N/A Rain Light Rain
3:15 PM 48.2 °F - 46.4 °F 93% 29.79 in 10.0 mi SSW 11.5 mph 18.4 mph N/A Rain Light Rain
3:35 PM 48.2 °F - 46.4 °F 93% 29.80 in 10.0 mi SSW 12.7 mph 17.3 mph N/A Rain Light Rain
3:55 PM 46.4 °F 41.1 °F 46.4 °F 100% 29.79 in 7.0 mi SSW 11.5 mph 19.6 mph N/A Rain Light Rain
4:15 PM 46.4 °F 40.7 °F 46.4 °F 100% 29.79 in 10.0 mi SSW 12.7 mph 21.9 mph N/A Rain Light Rain
4:35 PM 46.4 °F 42.4 °F 46.4 °F 100% 29.79 in 7.0 mi South 8.1 mph - N/A Rain Rain
4:55 PM 46.4 °F 41.5 °F 44.6 °F 93% 29.79 in 10.0 mi South 10.4 mph 17.3 mph N/A Rain Light Rain
5:15 PM 44.6 °F 38.8 °F 44.6 °F 100% 29.79 in 7.0 mi SSW 11.5 mph 17.3 mph N/A Rain Light Rain
5:35 PM 44.6 °F 38.4 °F 44.6 °F 100% 29.79 in 7.0 mi SSW 12.7 mph 17.3 mph N/A Rain Light Rain
5:55 PM 44.6 °F 38.8 °F 44.6 °F 100% 29.79 in 7.0 mi SSW 11.5 mph - N/A Rain Rain
6:15 PM 44.6 °F 38.8 °F 44.6 °F 100% 29.78 in 7.0 mi SSW 11.5 mph 17.3 mph N/A Rain Light Rain
6:35 PM 44.6 °F 39.2 °F 44.6 °F 100% 29.78 in 10.0 mi South 10.4 mph 20.7 mph N/A   Drizzle
6:55 PM 44.6 °F 38.8 °F 44.6 °F 100% 29.78 in 10.0 mi South 11.5 mph - N/A Rain Light Rain
7:15 PM 44.6 °F 38.8 °F 44.6 °F 100% 29.79 in 7.0 mi SSW 11.5 mph 16.1 mph N/A Rain Light Rain
7:35 PM 44.6 °F 38.8 °F 44.6 °F 100% 29.79 in 5.0 mi SSW 11.5 mph 17.3 mph N/A   Drizzle
7:55 PM 44.6 °F 38.8 °F 42.8 °F 93% 29.79 in 5.0 mi SSW 11.5 mph 17.3 mph N/A   Drizzle
8:15 PM 44.6 °F 39.2 °F 42.8 °F 93% 29.79 in 4.0 mi SSW 10.4 mph - N/A   Drizzle
8:35 PM 44.6 °F 39.2 °F 42.8 °F 93% 29.79 in 4.0 mi SSW 10.4 mph - N/A   Heavy Drizzle
8:55 PM 44.6 °F 39.2 °F 42.8 °F 93% 29.79 in 4.0 mi SSW 10.4 mph - N/A   Drizzle
9:15 PM 44.6 °F 39.7 °F 44.6 °F 100% 29.79 in 5.0 mi SSW 9.2 mph 17.3 mph N/A   Drizzle
9:35 PM 44.6 °F 39.7 °F 44.6 °F 100% 29.79 in 7.0 mi SSW 9.2 mph - N/A Rain Rain
9:55 PM 44.6 °F 38.8 °F 44.6 °F 100% 29.78 in 7.0 mi SSW 11.5 mph - N/A Rain Rain
10:15 PM 44.6 °F 39.2 °F 44.6 °F 100% 29.80 in 10.0 mi SSW 10.4 mph - N/A Rain Rain
10:35 PM 44.6 °F 39.2 °F 44.6 °F 100% 29.80 in 7.0 mi SSW 10.4 mph - N/A Rain Light Rain
10:55 PM 44.6 °F 39.7 °F 44.6 °F 100% 29.81 in 7.0 mi SW 9.2 mph - N/A   Drizzle
11:15 PM 44.6 °F 41.4 °F 44.6 °F 100% 29.82 in 3.0 mi WSW 5.8 mph - N/A   Heavy Drizzle
11:35 PM 44.6 °F 42.2 °F 44.6 °F 100% 29.82 in 4.0 mi SW 4.6 mph - N/A Rain Heavy Rain
11:55 PM 44.6 °F 42.2 °F 44.6 °F 100% 29.81 in 5.0 mi WSW 4.6 mph - N/A Rain Heavy Rain